ST-2

Last updated on Thu Aug 13 2026 00:02:58 GMT+0000 (Coordinated Universal Time)

1 37606U 11022B 26224.51818791 -.00000229 00000+0 00000+0 0 9996 2 37606 0.0127 92.7992 0001688 83.7739 58.9452 1.00271904 55841
UTC large
Height (km)
Speed (km/s)
/
Latitude / Longitude
Inclination (degrees)
Orbital Period (minutes)
Azimuth
Elevation
Range (km)
Doppler Factor

Next 0 passes for location: London (51.5072 / 0.1276)

No passes found over London.
ST-2